Year,Month,Day,Hour,Minute,Value (Times are PST for temperature in C)
2012,04,13,00,00,4.40
2012,04,13,00,01,4.40
2012,04,13,00,02,4.40
2012,04,13,00,03,4.40
2012,04,13,00,04,4.40
2012,04,13,00,05,4.30
2012,04,13,00,06,4.30
2012,04,13,00,07,4.30
2012,04,13,00,08,4.30
2012,04,13,00,09,4.20
2012,04,13,00,10,4.20
2012,04,13,00,11,4.20
2012,04,13,00,12,4.20
2012,04,13,00,13,4.10
2012,04,13,00,14,4.10
2012,04,13,00,15,4.10
2012,04,13,00,16,4.10
2012,04,13,00,17,4.10
2012,04,13,00,18,4.10
2012,04,13,00,19,4.10
2012,04,13,00,20,4.10
2012,04,13,00,21,4.10
2012,04,13,00,22,4.10
2012,04,13,00,23,4.10
2012,04,13,00,24,4.10
2012,04,13,00,25,4.10
2012,04,13,00,26,4.10
2012,04,13,00,27,4.10
2012,04,13,00,28,4.10
2012,04,13,00,29,4.10
2012,04,13,00,30,4.10
2012,04,13,00,31,4.10
2012,04,13,00,32,4.00
2012,04,13,00,33,4.00
2012,04,13,00,34,4.00
2012,04,13,00,35,4.00
2012,04,13,00,36,4.00
2012,04,13,00,37,4.00
2012,04,13,00,38,4.00
2012,04,13,00,39,4.00
2012,04,13,00,40,4.00
2012,04,13,00,41,4.00
2012,04,13,00,42,4.00
2012,04,13,00,43,4.00
2012,04,13,00,44,4.00
2012,04,13,00,45,4.00
2012,04,13,00,46,4.00
2012,04,13,00,47,4.00
2012,04,13,00,48,4.10
2012,04,13,00,49,4.10
2012,04,13,00,50,4.10
2012,04,13,00,51,4.10
2012,04,13,00,52,4.20
2012,04,13,00,53,4.20
2012,04,13,00,54,4.20
2012,04,13,00,55,4.20
2012,04,13,00,56,4.30
2012,04,13,00,57,4.30
2012,04,13,00,58,4.30
2012,04,13,00,59,4.30
2012,04,13,01,00,4.30
2012,04,13,01,01,4.30
2012,04,13,01,02,4.30
2012,04,13,01,03,4.30
2012,04,13,01,04,4.30
2012,04,13,01,05,4.30
2012,04,13,01,06,4.30
2012,04,13,01,07,4.30
2012,04,13,01,08,4.30
2012,04,13,01,09,4.30
2012,04,13,01,10,4.30
2012,04,13,01,11,4.30
2012,04,13,01,12,4.30
2012,04,13,01,13,4.30
2012,04,13,01,14,4.30
2012,04,13,01,15,4.30
2012,04,13,01,16,4.30
2012,04,13,01,17,4.30
2012,04,13,01,18,4.30
2012,04,13,01,19,4.30
2012,04,13,01,20,4.20
2012,04,13,01,21,4.20
2012,04,13,01,22,4.20
2012,04,13,01,23,4.20
2012,04,13,01,24,4.20
2012,04,13,01,25,4.20
2012,04,13,01,26,4.20
2012,04,13,01,27,4.20
2012,04,13,01,28,4.20
2012,04,13,01,29,4.10
2012,04,13,01,30,4.10
2012,04,13,01,31,4.10
2012,04,13,01,32,4.10
2012,04,13,01,33,4.10
2012,04,13,01,34,4.10
2012,04,13,01,35,4.10
2012,04,13,01,36,4.10
2012,04,13,01,37,4.20
2012,04,13,01,38,4.10
2012,04,13,01,39,4.10
2012,04,13,01,40,4.10
2012,04,13,01,41,4.10
2012,04,13,01,42,4.10
2012,04,13,01,43,4.10
2012,04,13,01,44,4.10
2012,04,13,01,45,4.10
2012,04,13,01,46,4.10
2012,04,13,01,47,4.10
2012,04,13,01,48,4.10
2012,04,13,01,49,4.10
2012,04,13,01,50,4.10
2012,04,13,01,51,4.10
2012,04,13,01,52,4.10
2012,04,13,01,53,4.10
2012,04,13,01,54,4.10
2012,04,13,01,55,4.10
2012,04,13,01,56,4.00
2012,04,13,01,57,4.00
2012,04,13,01,58,4.00
2012,04,13,01,59,4.00
2012,04,13,02,00,4.00
2012,04,13,02,01,4.00
2012,04,13,02,02,4.00
2012,04,13,02,03,3.90
2012,04,13,02,04,3.90
2012,04,13,02,05,3.90
2012,04,13,02,06,3.90
2012,04,13,02,07,3.90
2012,04,13,02,08,3.90
2012,04,13,02,09,3.90
2012,04,13,02,10,3.90
2012,04,13,02,11,3.90
2012,04,13,02,12,3.80
2012,04,13,02,13,3.80
2012,04,13,02,14,3.80
2012,04,13,02,15,3.80
2012,04,13,02,16,3.80
2012,04,13,02,17,3.80
2012,04,13,02,18,3.80
2012,04,13,02,19,3.80
2012,04,13,02,20,3.80
2012,04,13,02,21,3.80
2012,04,13,02,22,3.80
2012,04,13,02,23,3.80
2012,04,13,02,24,3.80
2012,04,13,02,25,3.80
2012,04,13,02,26,3.70
2012,04,13,02,27,3.70
2012,04,13,02,28,3.70
2012,04,13,02,29,3.70
2012,04,13,02,30,3.70
2012,04,13,02,31,3.70
2012,04,13,02,32,3.70
2012,04,13,02,33,3.70
2012,04,13,02,34,3.70
2012,04,13,02,35,3.60
2012,04,13,02,36,3.60
2012,04,13,02,37,3.60
2012,04,13,02,38,3.60
2012,04,13,02,39,3.60
2012,04,13,02,40,3.60
2012,04,13,02,41,3.50
2012,04,13,02,42,3.50
2012,04,13,02,43,3.50
2012,04,13,02,44,3.50
2012,04,13,02,45,3.40
2012,04,13,02,46,3.40
2012,04,13,02,47,3.40
2012,04,13,02,48,3.40
2012,04,13,02,49,3.40
2012,04,13,02,50,3.40
2012,04,13,02,51,3.40
2012,04,13,02,52,3.40
2012,04,13,02,53,3.40
2012,04,13,02,54,3.40
2012,04,13,02,55,3.40
2012,04,13,02,56,3.40
2012,04,13,02,57,3.40
2012,04,13,02,58,3.40
2012,04,13,02,59,3.40
2012,04,13,03,00,3.40
2012,04,13,03,01,3.40
2012,04,13,03,02,3.40
2012,04,13,03,03,3.40
2012,04,13,03,04,3.30
2012,04,13,03,05,3.30
2012,04,13,03,06,3.30
2012,04,13,03,07,3.30
2012,04,13,03,08,3.30
2012,04,13,03,09,3.30
2012,04,13,03,10,3.20
2012,04,13,03,11,3.20
2012,04,13,03,12,3.20
2012,04,13,03,13,3.30
2012,04,13,03,14,3.30
2012,04,13,03,15,3.30
2012,04,13,03,16,3.30
2012,04,13,03,17,3.30
2012,04,13,03,18,3.30
2012,04,13,03,19,3.40
2012,04,13,03,20,3.40
2012,04,13,03,21,3.40
2012,04,13,03,22,3.40
2012,04,13,03,23,3.40
2012,04,13,03,24,3.50
2012,04,13,03,25,3.50
2012,04,13,03,26,3.50
2012,04,13,03,27,3.50
2012,04,13,03,28,3.60
2012,04,13,03,29,3.60
2012,04,13,03,30,3.60
2012,04,13,03,31,3.60
2012,04,13,03,32,3.60
2012,04,13,03,33,3.60
2012,04,13,03,34,3.60
2012,04,13,03,35,3.60
2012,04,13,03,36,3.60
2012,04,13,03,37,3.60
2012,04,13,03,38,3.60
2012,04,13,03,39,3.60
2012,04,13,03,40,3.70
2012,04,13,03,41,3.70
2012,04,13,03,42,3.70
2012,04,13,03,43,3.70
2012,04,13,03,44,3.70
2012,04,13,03,45,3.60
2012,04,13,03,46,3.60
2012,04,13,03,47,3.60
2012,04,13,03,48,3.60
2012,04,13,03,49,3.50
2012,04,13,03,50,3.50
2012,04,13,03,51,3.50
2012,04,13,03,52,3.50
2012,04,13,03,53,3.40
2012,04,13,03,54,3.40
2012,04,13,03,55,3.40
2012,04,13,03,56,3.40
2012,04,13,03,57,3.40
2012,04,13,03,58,3.40
2012,04,13,03,59,3.40
2012,04,13,04,00,3.30
2012,04,13,04,01,3.30
2012,04,13,04,02,3.30
2012,04,13,04,03,3.30
2012,04,13,04,04,3.20
2012,04,13,04,05,3.20
2012,04,13,04,06,3.20
2012,04,13,04,07,3.20
2012,04,13,04,08,3.20
2012,04,13,04,09,3.20
2012,04,13,04,10,3.10
2012,04,13,04,11,3.10
2012,04,13,04,12,3.10
2012,04,13,04,13,3.10
2012,04,13,04,14,3.10
2012,04,13,04,15,3.10
2012,04,13,04,16,3.00
2012,04,13,04,17,3.00
2012,04,13,04,18,3.00
2012,04,13,04,19,3.00
2012,04,13,04,20,2.90
2012,04,13,04,21,2.90
2012,04,13,04,22,2.90
2012,04,13,04,23,2.90
2012,04,13,04,24,2.90
2012,04,13,04,25,2.90
2012,04,13,04,26,2.90
2012,04,13,04,27,2.90
2012,04,13,04,28,3.00
2012,04,13,04,29,3.00
2012,04,13,04,30,3.00
2012,04,13,04,31,3.00
2012,04,13,04,32,3.00
2012,04,13,04,33,3.00
2012,04,13,04,34,3.10
2012,04,13,04,35,3.00
2012,04,13,04,36,3.00
2012,04,13,04,37,3.00
2012,04,13,04,38,3.00
2012,04,13,04,39,3.00
2012,04,13,04,40,3.00
2012,04,13,04,41,3.00
2012,04,13,04,42,3.00
2012,04,13,04,43,3.00
2012,04,13,04,44,2.90
2012,04,13,04,45,2.90
2012,04,13,04,46,2.90
2012,04,13,04,47,2.90
2012,04,13,04,48,2.90
2012,04,13,04,49,2.90
2012,04,13,04,50,2.80
2012,04,13,04,51,2.80
2012,04,13,04,52,2.80
2012,04,13,04,53,2.80
2012,04,13,04,54,2.80
2012,04,13,04,55,2.80
2012,04,13,04,56,2.70
2012,04,13,04,57,2.70
2012,04,13,04,58,2.70
2012,04,13,04,59,2.70
2012,04,13,05,00,2.70
2012,04,13,05,01,2.60
2012,04,13,05,02,2.60
2012,04,13,05,03,2.60
2012,04,13,05,04,2.60
2012,04,13,05,05,2.60
2012,04,13,05,06,2.50
2012,04,13,05,07,2.50
2012,04,13,05,08,2.50
2012,04,13,05,09,2.50
2012,04,13,05,10,2.50
2012,04,13,05,11,2.50
2012,04,13,05,12,2.50
2012,04,13,05,13,2.60
2012,04,13,05,14,2.50
2012,04,13,05,15,2.50
2012,04,13,05,16,2.60
2012,04,13,05,17,2.50
2012,04,13,05,18,2.50
2012,04,13,05,19,2.50
2012,04,13,05,20,2.50
2012,04,13,05,21,2.50
2012,04,13,05,22,2.40
2012,04,13,05,23,2.40
2012,04,13,05,24,2.40
2012,04,13,05,25,2.40
2012,04,13,05,26,2.40
2012,04,13,05,27,2.30
2012,04,13,05,28,2.30
2012,04,13,05,29,2.30
2012,04,13,05,30,2.30
2012,04,13,05,31,2.30
2012,04,13,05,32,2.30
2012,04,13,05,33,2.20
2012,04,13,05,34,2.20
2012,04,13,05,35,2.20
2012,04,13,05,36,2.20
2012,04,13,05,37,2.20
2012,04,13,05,38,2.20
2012,04,13,05,39,2.20
2012,04,13,05,40,2.20
2012,04,13,05,41,2.20
2012,04,13,05,42,2.20
2012,04,13,05,43,2.20
2012,04,13,05,44,2.20
2012,04,13,05,45,2.20
2012,04,13,05,46,2.20
2012,04,13,05,47,2.20
2012,04,13,05,48,2.10
2012,04,13,05,49,2.10
2012,04,13,05,50,2.10
2012,04,13,05,51,2.10
2012,04,13,05,52,2.10
2012,04,13,05,53,2.10
2012,04,13,05,54,2.20
2012,04,13,05,55,2.20
2012,04,13,05,56,2.20
2012,04,13,05,57,2.20
2012,04,13,05,58,2.20
2012,04,13,05,59,2.30
2012,04,13,06,00,2.30
2012,04,13,06,01,2.30
2012,04,13,06,02,2.40
2012,04,13,06,03,2.40
2012,04,13,06,04,2.50
2012,04,13,06,05,2.50
2012,04,13,06,06,2.60
2012,04,13,06,07,2.60
2012,04,13,06,08,2.60
2012,04,13,06,09,2.70
2012,04,13,06,10,2.70
2012,04,13,06,11,2.70
2012,04,13,06,12,2.80
2012,04,13,06,13,2.80
2012,04,13,06,14,2.80
2012,04,13,06,15,2.80
2012,04,13,06,16,2.80
2012,04,13,06,17,2.80
2012,04,13,06,18,2.80
2012,04,13,06,19,2.80
2012,04,13,06,20,2.90
2012,04,13,06,21,2.90
2012,04,13,06,22,2.90
2012,04,13,06,23,2.90
2012,04,13,06,24,2.90
2012,04,13,06,25,2.90
2012,04,13,06,26,2.90
2012,04,13,06,27,2.90
2012,04,13,06,28,2.90
2012,04,13,06,29,2.90
2012,04,13,06,30,2.90
2012,04,13,06,31,2.90
2012,04,13,06,32,2.90
2012,04,13,06,33,2.90
2012,04,13,06,34,2.90
2012,04,13,06,35,2.90
2012,04,13,06,36,2.90
2012,04,13,06,37,2.90
2012,04,13,06,38,2.90
2012,04,13,06,39,2.80
2012,04,13,06,40,2.80
2012,04,13,06,41,2.80
2012,04,13,06,42,2.80
2012,04,13,06,43,2.80
2012,04,13,06,44,2.80
2012,04,13,06,45,2.70
2012,04,13,06,46,2.70
2012,04,13,06,47,2.70
2012,04,13,06,48,2.70
2012,04,13,06,49,2.70
2012,04,13,06,50,2.70
2012,04,13,06,51,2.70
2012,04,13,06,52,2.70
2012,04,13,06,53,2.70
2012,04,13,06,54,2.70
2012,04,13,06,55,2.70
2012,04,13,06,56,2.70
2012,04,13,06,57,2.70
2012,04,13,06,58,2.70
2012,04,13,06,59,2.70
2012,04,13,07,00,2.70
2012,04,13,07,01,2.70
2012,04,13,07,02,2.70
2012,04,13,07,03,2.70
2012,04,13,07,04,2.70
2012,04,13,07,05,2.70
2012,04,13,07,06,2.70
2012,04,13,07,07,2.70
2012,04,13,07,08,2.80
2012,04,13,07,09,2.80
2012,04,13,07,10,2.80
2012,04,13,07,11,2.80
2012,04,13,07,12,2.80
2012,04,13,07,13,2.80
2012,04,13,07,14,2.80
2012,04,13,07,15,2.80
2012,04,13,07,16,2.80
2012,04,13,07,17,2.80
2012,04,13,07,18,2.80
2012,04,13,07,19,2.80
2012,04,13,07,20,2.80
2012,04,13,07,21,2.80
2012,04,13,07,22,2.80
2012,04,13,07,23,2.80
2012,04,13,07,24,2.90
2012,04,13,07,25,2.90
2012,04,13,07,26,2.90
2012,04,13,07,27,2.90
2012,04,13,07,28,3.00
2012,04,13,07,29,3.00
2012,04,13,07,30,3.00
2012,04,13,07,31,3.10
2012,04,13,07,32,3.10
2012,04,13,07,33,3.20
2012,04,13,07,34,3.20
2012,04,13,07,35,3.20
2012,04,13,07,36,3.30
2012,04,13,07,37,3.30
2012,04,13,07,38,3.40
2012,04,13,07,39,3.40
2012,04,13,07,40,3.40
2012,04,13,07,41,3.40
2012,04,13,07,42,3.50
2012,04,13,07,43,3.50
2012,04,13,07,44,3.50
2012,04,13,07,45,3.50
2012,04,13,07,46,3.60
2012,04,13,07,47,3.60
2012,04,13,07,48,3.60
2012,04,13,07,49,3.60
2012,04,13,07,50,3.70
2012,04,13,07,51,3.70
2012,04,13,07,52,3.70
2012,04,13,07,53,3.70
2012,04,13,07,54,3.70
2012,04,13,07,55,3.80
2012,04,13,07,56,3.80
2012,04,13,07,57,3.80
2012,04,13,07,58,3.90
2012,04,13,07,59,3.90
2012,04,13,08,00,4.00
2012,04,13,08,01,4.00
2012,04,13,08,02,4.10
2012,04,13,08,03,4.20
2012,04,13,08,04,4.20
2012,04,13,08,05,4.30
2012,04,13,08,06,4.30
2012,04,13,08,07,4.30
2012,04,13,08,08,4.40
2012,04,13,08,09,4.40
2012,04,13,08,10,4.50
2012,04,13,08,11,4.50
2012,04,13,08,12,4.60
2012,04,13,08,13,4.60
2012,04,13,08,14,4.70
2012,04,13,08,15,4.80
2012,04,13,08,16,4.90
2012,04,13,08,17,5.00
2012,04,13,08,18,5.10
2012,04,13,08,19,5.20
2012,04,13,08,20,5.30
2012,04,13,08,21,5.40
2012,04,13,08,22,5.40
2012,04,13,08,23,5.50
2012,04,13,08,24,5.60
2012,04,13,08,25,5.70
2012,04,13,08,26,5.80
2012,04,13,08,27,5.90
2012,04,13,08,28,6.00
2012,04,13,08,29,6.00
2012,04,13,08,30,6.10
2012,04,13,08,31,6.20
2012,04,13,08,32,6.30
2012,04,13,08,33,6.30
2012,04,13,08,34,6.40
2012,04,13,08,35,6.50
2012,04,13,08,36,6.60
2012,04,13,08,37,6.70
2012,04,13,08,38,6.70
2012,04,13,08,39,6.80
2012,04,13,08,40,6.90
2012,04,13,08,41,7.00
2012,04,13,08,42,7.20
2012,04,13,08,43,7.30
2012,04,13,08,44,7.40
2012,04,13,08,45,7.50
2012,04,13,08,46,7.60
2012,04,13,08,47,7.70
2012,04,13,08,48,7.80
2012,04,13,08,49,7.90
2012,04,13,08,50,8.00
2012,04,13,08,51,8.10
2012,04,13,08,52,8.20
2012,04,13,08,53,8.30
2012,04,13,08,54,8.30
2012,04,13,08,55,8.40
2012,04,13,08,56,8.40
2012,04,13,08,57,8.50
2012,04,13,08,58,8.60
2012,04,13,08,59,8.60
2012,04,13,09,00,8.70
2012,04,13,09,01,8.80
2012,04,13,09,02,8.80
2012,04,13,09,03,8.90
2012,04,13,09,04,8.90
2012,04,13,09,05,8.80
2012,04,13,09,06,8.80
2012,04,13,09,07,8.80
2012,04,13,09,08,8.80
2012,04,13,09,09,8.80
2012,04,13,09,10,8.80
2012,04,13,09,11,8.90
2012,04,13,09,12,8.90
2012,04,13,09,13,8.90
2012,04,13,09,14,9.00
2012,04,13,09,15,9.00
2012,04,13,09,16,9.10
2012,04,13,09,17,9.20
2012,04,13,09,18,9.20
2012,04,13,09,19,9.20
2012,04,13,09,20,9.30
2012,04,13,09,21,9.30
2012,04,13,09,22,9.40
2012,04,13,09,23,9.40
2012,04,13,09,24,9.40
2012,04,13,09,25,9.40
2012,04,13,09,26,9.40
2012,04,13,09,27,9.40
2012,04,13,09,28,9.50
2012,04,13,09,29,9.60
2012,04,13,09,30,9.60
2012,04,13,09,31,9.70
2012,04,13,09,32,9.70
2012,04,13,09,33,9.80
2012,04,13,09,34,9.80
2012,04,13,09,35,9.90
2012,04,13,09,36,9.90
2012,04,13,09,37,9.90
2012,04,13,09,38,9.90
2012,04,13,09,39,9.90
2012,04,13,09,40,9.80
2012,04,13,09,41,9.90
2012,04,13,09,42,9.90
2012,04,13,09,43,9.90
2012,04,13,09,44,9.90
2012,04,13,09,45,9.80
2012,04,13,09,46,9.80
2012,04,13,09,47,9.70
2012,04,13,09,48,9.80
2012,04,13,09,49,9.80
2012,04,13,09,50,9.80
2012,04,13,09,51,9.90
2012,04,13,09,52,9.90
2012,04,13,09,53,9.90
2012,04,13,09,54,9.90
2012,04,13,09,55,10.00
2012,04,13,09,56,10.10
2012,04,13,09,57,10.10
2012,04,13,09,58,10.20
2012,04,13,09,59,10.10
2012,04,13,10,00,10.10
2012,04,13,10,01,10.10
2012,04,13,10,02,10.20
2012,04,13,10,03,10.20
2012,04,13,10,04,10.30
2012,04,13,10,05,10.40
2012,04,13,10,06,10.50
2012,04,13,10,07,10.50
2012,04,13,10,08,10.60
2012,04,13,10,09,10.60
2012,04,13,10,10,10.50
2012,04,13,10,11,10.40
2012,04,13,10,12,10.30
2012,04,13,10,13,10.30
2012,04,13,10,14,10.30
2012,04,13,10,15,10.20
2012,04,13,10,16,10.20
2012,04,13,10,17,10.10
2012,04,13,10,18,10.10
2012,04,13,10,19,10.10
2012,04,13,10,20,10.10
2012,04,13,10,21,10.10
2012,04,13,10,22,10.20
2012,04,13,10,23,10.10
2012,04,13,10,24,10.20
2012,04,13,10,25,10.20
2012,04,13,10,26,10.20
2012,04,13,10,27,10.20
2012,04,13,10,28,10.20
2012,04,13,10,29,10.10
2012,04,13,10,30,10.10
2012,04,13,10,31,10.20
2012,04,13,10,32,10.20
2012,04,13,10,33,10.20
2012,04,13,10,34,10.20
2012,04,13,10,35,10.30
2012,04,13,10,36,10.30
2012,04,13,10,37,10.30
2012,04,13,10,38,10.40
2012,04,13,10,39,10.40
2012,04,13,10,40,10.40
2012,04,13,10,41,10.50
2012,04,13,10,42,10.50
2012,04,13,10,43,10.60
2012,04,13,10,44,10.60
2012,04,13,10,45,10.60
2012,04,13,10,46,10.70
2012,04,13,10,47,10.70
2012,04,13,10,48,10.80
2012,04,13,10,49,10.70
2012,04,13,10,50,10.70
2012,04,13,10,51,10.60
2012,04,13,10,52,10.50
2012,04,13,10,53,10.50
2012,04,13,10,54,10.40
2012,04,13,10,55,10.50
2012,04,13,10,56,10.50
2012,04,13,10,57,10.50
2012,04,13,10,58,10.40
2012,04,13,10,59,10.40
2012,04,13,11,00,10.40
2012,04,13,11,01,10.40
2012,04,13,11,02,10.40
2012,04,13,11,03,10.40
2012,04,13,11,04,10.30
2012,04,13,11,05,10.20
2012,04,13,11,06,10.10
2012,04,13,11,07,10.10
2012,04,13,11,08,10.10
2012,04,13,11,09,10.20
2012,04,13,11,10,10.20
2012,04,13,11,11,10.20
2012,04,13,11,12,10.30
2012,04,13,11,13,10.20
2012,04,13,11,14,10.20
2012,04,13,11,15,10.20
2012,04,13,11,16,10.30
2012,04,13,11,17,10.30
2012,04,13,11,18,10.30
2012,04,13,11,19,10.30
2012,04,13,11,20,10.30
2012,04,13,11,21,10.30
2012,04,13,11,22,10.30
2012,04,13,11,23,10.30
2012,04,13,11,24,10.30
2012,04,13,11,25,10.30
2012,04,13,11,26,10.30
2012,04,13,11,27,10.30
2012,04,13,11,28,10.30
2012,04,13,11,29,10.40
2012,04,13,11,30,10.40
2012,04,13,11,31,10.40
2012,04,13,11,32,10.40
2012,04,13,11,33,10.40
2012,04,13,11,34,10.30
2012,04,13,11,35,10.30
2012,04,13,11,36,10.20
2012,04,13,11,37,10.20
2012,04,13,11,38,10.20
2012,04,13,11,39,10.30
2012,04,13,11,40,10.30
2012,04,13,11,41,10.30
2012,04,13,11,42,10.40
2012,04,13,11,43,10.50
2012,04,13,11,44,10.50
2012,04,13,11,45,10.60
2012,04,13,11,46,10.70
2012,04,13,11,47,10.70
2012,04,13,11,48,10.50
2012,04,13,11,49,10.40
2012,04,13,11,50,10.40
2012,04,13,11,51,10.40
2012,04,13,11,52,10.40
2012,04,13,11,53,10.30
2012,04,13,11,54,10.20
2012,04,13,11,55,10.00
2012,04,13,11,56,9.90
2012,04,13,11,57,9.90
2012,04,13,11,58,10.00
2012,04,13,11,59,10.00
2012,04,13,12,00,10.10
2012,04,13,12,01,10.20
2012,04,13,12,02,10.10
2012,04,13,12,03,10.10
2012,04,13,12,04,10.10
2012,04,13,12,05,10.10
2012,04,13,12,06,10.20
2012,04,13,12,07,10.30
2012,04,13,12,08,10.30
2012,04,13,12,09,10.30
2012,04,13,12,10,10.20
2012,04,13,12,11,10.20
2012,04,13,12,12,10.20
2012,04,13,12,13,10.30
2012,04,13,12,14,10.30
2012,04,13,12,15,10.40
2012,04,13,12,16,10.40
2012,04,13,12,17,10.50
2012,04,13,12,18,10.50
2012,04,13,12,19,10.50
2012,04,13,12,20,10.50
2012,04,13,12,21,10.40
2012,04,13,12,22,10.40
2012,04,13,12,23,10.30
2012,04,13,12,24,10.30
2012,04,13,12,25,10.20
2012,04,13,12,26,10.30
2012,04,13,12,27,10.40
2012,04,13,12,28,10.40
2012,04,13,12,29,10.50
2012,04,13,12,30,10.60
2012,04,13,12,31,10.60
2012,04,13,12,32,10.60
2012,04,13,12,33,10.60
2012,04,13,12,34,10.60
2012,04,13,12,35,10.70
2012,04,13,12,36,10.80
2012,04,13,12,37,10.80
2012,04,13,12,38,10.90
2012,04,13,12,39,10.90
2012,04,13,12,40,10.80
2012,04,13,12,41,10.80
2012,04,13,12,42,10.80
2012,04,13,12,43,10.70
2012,04,13,12,44,10.60
2012,04,13,12,45,10.50
2012,04,13,12,46,10.40
2012,04,13,12,47,10.40
2012,04,13,12,48,10.30
2012,04,13,12,49,10.40
2012,04,13,12,50,10.40
2012,04,13,12,51,10.40
2012,04,13,12,52,10.40
2012,04,13,12,53,10.50
2012,04,13,12,54,10.50
2012,04,13,12,55,10.50
2012,04,13,12,56,10.50
2012,04,13,12,57,10.50
2012,04,13,12,58,10.50
2012,04,13,12,59,10.60
2012,04,13,13,00,10.60
2012,04,13,13,01,10.70
2012,04,13,13,02,10.70
2012,04,13,13,03,10.80
2012,04,13,13,04,10.80
2012,04,13,13,05,10.90
2012,04,13,13,06,11.00
2012,04,13,13,07,11.00
2012,04,13,13,08,10.90
2012,04,13,13,09,10.90
2012,04,13,13,10,10.90
2012,04,13,13,11,10.90
2012,04,13,13,12,10.90
2012,04,13,13,13,10.80
2012,04,13,13,14,10.80
2012,04,13,13,15,10.90
2012,04,13,13,16,11.00
2012,04,13,13,17,11.00
2012,04,13,13,18,11.20
2012,04,13,13,19,11.30
2012,04,13,13,20,11.50
2012,04,13,13,21,11.60
2012,04,13,13,22,11.70
2012,04,13,13,23,11.70
2012,04,13,13,24,11.70
2012,04,13,13,25,11.70
2012,04,13,13,26,11.70
2012,04,13,13,27,11.60
2012,04,13,13,28,11.60
2012,04,13,13,29,11.60
2012,04,13,13,30,11.60
2012,04,13,13,31,11.60
2012,04,13,13,32,11.70
2012,04,13,13,33,11.70
2012,04,13,13,34,11.70
2012,04,13,13,35,11.70
2012,04,13,13,36,11.70
2012,04,13,13,37,11.70
2012,04,13,13,38,11.60
2012,04,13,13,39,11.60
2012,04,13,13,40,11.70
2012,04,13,13,41,11.80
2012,04,13,13,42,11.80
2012,04,13,13,43,11.90
2012,04,13,13,44,11.90
2012,04,13,13,45,12.00
2012,04,13,13,46,12.00
2012,04,13,13,47,11.80
2012,04,13,13,48,11.70
2012,04,13,13,49,11.60
2012,04,13,13,50,11.60
2012,04,13,13,51,11.60
2012,04,13,13,52,11.60
2012,04,13,13,53,11.60
2012,04,13,13,54,11.60
2012,04,13,13,55,11.60
2012,04,13,13,56,11.50
2012,04,13,13,57,11.50
2012,04,13,13,58,11.40
2012,04,13,13,59,11.30
2012,04,13,14,00,11.30
2012,04,13,14,01,11.30
2012,04,13,14,02,11.40
2012,04,13,14,03,11.40
2012,04,13,14,04,11.40
2012,04,13,14,05,11.40
2012,04,13,14,06,11.30
2012,04,13,14,07,11.30
2012,04,13,14,08,11.40
2012,04,13,14,09,11.40
2012,04,13,14,10,11.40
2012,04,13,14,11,11.30
2012,04,13,14,12,11.30
2012,04,13,14,13,11.30
2012,04,13,14,14,11.30
2012,04,13,14,15,11.30
2012,04,13,14,16,11.30
2012,04,13,14,17,11.40
2012,04,13,14,18,11.40
2012,04,13,14,19,11.40
2012,04,13,14,20,11.40
2012,04,13,14,21,11.50
2012,04,13,14,22,11.60
2012,04,13,14,23,11.60
2012,04,13,14,24,11.60
2012,04,13,14,25,11.60
2012,04,13,14,26,11.70
2012,04,13,14,27,11.70
2012,04,13,14,28,11.70
2012,04,13,14,29,11.70
2012,04,13,14,30,11.60
2012,04,13,14,31,11.50
2012,04,13,14,32,11.30
2012,04,13,14,33,11.20
2012,04,13,14,34,11.20
2012,04,13,14,35,11.20
2012,04,13,14,36,11.20
2012,04,13,14,37,11.20
2012,04,13,14,38,11.10
2012,04,13,14,39,11.20
2012,04,13,14,40,11.20
2012,04,13,14,41,11.20
2012,04,13,14,42,11.20
2012,04,13,14,43,11.20
2012,04,13,14,44,11.30
2012,04,13,14,45,11.30
2012,04,13,14,46,11.30
2012,04,13,14,47,11.30
2012,04,13,14,48,11.40
2012,04,13,14,49,11.40
2012,04,13,14,50,11.50
2012,04,13,14,51,11.60
2012,04,13,14,52,11.70
2012,04,13,14,53,11.70
2012,04,13,14,54,11.70
2012,04,13,14,55,11.80
2012,04,13,14,56,11.80
2012,04,13,14,57,11.80
2012,04,13,14,58,11.80
2012,04,13,14,59,11.80
2012,04,13,15,00,11.80
2012,04,13,15,01,11.90
2012,04,13,15,02,11.90
2012,04,13,15,03,11.90
2012,04,13,15,04,11.90
2012,04,13,15,05,11.80
2012,04,13,15,06,11.80
2012,04,13,15,07,11.90
2012,04,13,15,08,11.90
2012,04,13,15,09,11.90
2012,04,13,15,10,11.90
2012,04,13,15,11,11.90
2012,04,13,15,12,11.90
2012,04,13,15,13,11.90
2012,04,13,15,14,11.90
2012,04,13,15,15,12.00
2012,04,13,15,16,12.00
2012,04,13,15,17,12.10
2012,04,13,15,18,12.10
2012,04,13,15,19,12.20
2012,04,13,15,20,12.20
2012,04,13,15,21,12.20
2012,04,13,15,22,12.30
2012,04,13,15,23,12.30
2012,04,13,15,24,12.30
2012,04,13,15,25,12.30
2012,04,13,15,26,12.20
2012,04,13,15,27,12.20
2012,04,13,15,28,12.20
2012,04,13,15,29,12.20
2012,04,13,15,30,12.20
2012,04,13,15,31,12.20
2012,04,13,15,32,12.20
2012,04,13,15,33,12.20
2012,04,13,15,34,12.20
2012,04,13,15,35,12.30
2012,04,13,15,36,12.40
2012,04,13,15,37,12.50
2012,04,13,15,38,12.60
2012,04,13,15,39,12.70
2012,04,13,15,40,12.70
2012,04,13,15,41,12.80
2012,04,13,15,42,12.80
2012,04,13,15,43,12.80
2012,04,13,15,44,12.90
2012,04,13,15,45,12.90
2012,04,13,15,46,12.90
2012,04,13,15,47,12.90
2012,04,13,15,48,12.90
2012,04,13,15,49,12.80
2012,04,13,15,50,12.80
2012,04,13,15,51,12.80
2012,04,13,15,52,12.80
2012,04,13,15,53,12.80
2012,04,13,15,54,12.80
2012,04,13,15,55,12.80
2012,04,13,15,56,12.90
2012,04,13,15,57,12.90
2012,04,13,15,58,12.90
2012,04,13,15,59,12.90
2012,04,13,16,00,12.90
2012,04,13,16,01,12.90
2012,04,13,16,02,13.00
2012,04,13,16,03,13.00
2012,04,13,16,04,13.10
2012,04,13,16,05,13.10
2012,04,13,16,06,13.20
2012,04,13,16,07,13.20
2012,04,13,16,08,13.30
2012,04,13,16,09,13.30
2012,04,13,16,10,13.40
2012,04,13,16,11,13.40
2012,04,13,16,12,13.40
2012,04,13,16,13,13.40
2012,04,13,16,14,13.40
2012,04,13,16,15,13.40
2012,04,13,16,16,13.40
2012,04,13,16,17,13.50
2012,04,13,16,18,13.50
2012,04,13,16,19,13.60
2012,04,13,16,20,13.60
2012,04,13,16,21,13.60
2012,04,13,16,22,13.60
2012,04,13,16,23,13.60
2012,04,13,16,24,13.60
2012,04,13,16,25,13.60
2012,04,13,16,26,13.60
2012,04,13,16,27,13.60
2012,04,13,16,28,13.60
2012,04,13,16,29,13.70
2012,04,13,16,30,13.70
2012,04,13,16,31,13.70
2012,04,13,16,32,13.70
2012,04,13,16,33,13.70
2012,04,13,16,34,13.80
2012,04,13,16,35,13.80
2012,04,13,16,36,13.70
2012,04,13,16,37,13.70
2012,04,13,16,38,13.60
2012,04,13,16,39,13.50
2012,04,13,16,40,13.40
2012,04,13,16,41,13.40
2012,04,13,16,42,13.40
2012,04,13,16,43,13.30
2012,04,13,16,44,13.30
2012,04,13,16,45,13.20
2012,04,13,16,46,13.20
2012,04,13,16,47,13.10
2012,04,13,16,48,13.10
2012,04,13,16,49,13.00
2012,04,13,16,50,12.90
2012,04,13,16,51,12.90
2012,04,13,16,52,12.80
2012,04,13,16,53,12.80
2012,04,13,16,54,12.80
2012,04,13,16,55,12.80
2012,04,13,16,56,12.80
2012,04,13,16,57,12.90
2012,04,13,16,58,13.00
2012,04,13,16,59,12.90
2012,04,13,17,00,12.90
2012,04,13,17,01,12.80
2012,04,13,17,02,12.80
2012,04,13,17,03,12.80
2012,04,13,17,04,12.80
2012,04,13,17,05,12.80
2012,04,13,17,06,12.80
2012,04,13,17,07,12.80
2012,04,13,17,08,12.80
2012,04,13,17,09,12.80
2012,04,13,17,10,12.70
2012,04,13,17,11,12.60
2012,04,13,17,12,12.50
2012,04,13,17,13,12.30
2012,04,13,17,14,12.20
2012,04,13,17,15,12.10
2012,04,13,17,16,12.10
2012,04,13,17,17,12.00
2012,04,13,17,18,11.90
2012,04,13,17,19,11.90
2012,04,13,17,20,11.80
2012,04,13,17,21,11.70
2012,04,13,17,22,11.70
2012,04,13,17,23,11.60
2012,04,13,17,24,11.60
2012,04,13,17,25,11.60
2012,04,13,17,26,11.60
2012,04,13,17,27,11.60
2012,04,13,17,28,11.60
2012,04,13,17,29,11.60
2012,04,13,17,30,11.60
2012,04,13,17,31,11.60
2012,04,13,17,32,11.60
2012,04,13,17,33,11.60
2012,04,13,17,34,11.70
2012,04,13,17,35,11.70
2012,04,13,17,36,11.70
2012,04,13,17,37,11.70
2012,04,13,17,38,11.80
2012,04,13,17,39,11.80
2012,04,13,17,40,11.80
2012,04,13,17,41,11.80
2012,04,13,17,42,11.80
2012,04,13,17,43,11.80
2012,04,13,17,44,11.80
2012,04,13,17,45,11.80